Temperature
11 11 11 11 11 11 10 9 10 10 10 11 11 10 11 11 11 10 10 10 9 9 9 8 8 7 7 7 7 6 6 6 6 6 5 5 5 5 4 4 4 3 3 3
11 11 10 10 10 10 10 10 9 10 10 10 10 10 10 10 10 9 9 9 8 8 8 7 7 6 6 6 6 6 5 5 5 5 5 4 4 4 3 3 3 2 2 2
8 9 9 8 9 10 9 9 9 9 10 10 9 10 10 10 9 9 8 8 8 7 7 6 6 6 5 5 5 5 5 5 4 4 4 3 3 3 2 2 2 1 1 1
7 9 8 9 10 10 10 10 10 10 9 9 10 10 10 9 8 8 8 7 7 6 6 6 5 5 5 5 5 4 4 4 4 3 3 2 2 2 1 1 1 0 0 0
6 7 7 8 10 11 11 10 9 9 9 9 9 8 8 8 8 7 7 6 6 6 5 5 5 4 4 4 4 4 3 3 3 2 2 1 1 1 0 -0 -0 -0 -1 -1
6 7 7 9 10 11 11 9 9 8 8 8 7 5 6 8 7 7 6 6 5 5 5 4 4 4 3 3 3 3 2 2 1 1 0 0 -0 -0 -1 -1 -1 -1 -1 -1
5 6 7 8 9 10 9 8 8 8 8 7 6 6 7 6 6 5 5 5 4 4 4 4 3 3 3 3 2 2 1 1 0 0 -0 -1 -1 -1 -1 -2 -2 -2 -2 -2
4 6 7 9 9 8 8 8 8 7 7 7 6 6 6 5 5 4 4 4 4 3 3 3 3 2 2 2 1 1 0 -0 -0 -1 -1 -1 -2 -2 -2 -2 -3 -3 -3 -2
6 7 8 9 8 8 8 7 7 6 6 6 5 5 4 4 4 4 4 3 3 3 3 2 2 2 1 1 0 -0 -1 -1 -1 -2 -2 -2 -3 -3 -3 -3 -3 -3 -3 -3
6 6 8 8 7 7 6 6 6 5 5 5 4 4 4 4 4 3 3 3 2 2 2 2 1 1 0 0 -1 -1 -2 -2 -2 -3 -3 -3 -3 -3 -4 -4 -4 -4 -4 -4
5 6 6 6 6 6 6 6 5 5 5 4 4 4 3 3 3 3 2 2 2 1 1 1 0 0 -0 -1 -2 -2 -3 -3 -3 -3 -4 -4 -4 -4 -4 -4 -4 -4 -4 -4
5 6 5 6 6 6 5 5 5 4 4 4 3 3 3 3 2 2 2 1 1 1 0 -0 -0 -1 -1 -2 -3 -3 -4 -4 -4 -4 -4 -4 -5 -5 -4 -4 -4 -4 -4 -4
6 6 6 6 5 5 5 4 4 4 4 3 3 3 2 2 2 1 1 1 0 -0 -1 -1 -1 -1 -2 -2 -3 -4 -4 -4 -5 -5 -5 -5 -5 -5 -5 -5 -4 -4 -4 -4
5 5 5 5 5 4 4 4 4 3 3 3 2 2 2 1 1 1 0 0 -0 -1 -1 -1 -2 -2 -2 -3 -4 -4 -5 -5 -5 -5 -5 -6 -6 -6 -5 -5 -5 -5 -4 -4
5 5 5 4 4 4 4 3 3 3 3 2 2 2 1 1 1 0 0 -0 -1 -1 -1 -2 -2 -2 -3 -4 -4 -5 -5 -5 -6 -6 -6 -6 -6 -6 -5 -5 -5 -5 -5 -4
4 4 4 4 4 4 3 3 3 2 2 2 2 1 1 0 0 -0 -0 -1 -1 -2 -2 -2 -2 -3 -4 -4 -5 -5 -6 -6 -6 -6 -6 -6 -6 -6 -6 -5 -5 -5 -5 -5
4 4 4 3 3 3 3 2 2 2 2 1 1 1 0 0 -0 -0 -1 -1 -2 -2 -2 -2 -3 -4 -4 -5 -6 -6 -6 -6 -6 -6 -6 -6 -6 -6 -6 -6 -6 -6 -5 -5
3 3 3 3 3 2 2 2 2 1 1 1 1 0 0 -0 -1 -1 -1 -2 -2 -2 -2 -3 -4 -4 -5 -5 -6 -6 -6 -6 -6 -6 -6 -6 -6 -6 -6 -6 -6 -6 -5 -5
3 3 3 2 2 2 2 1 1 1 1 1 0 -0 -0 -1 -1 -2 -2 -2 -2 -3 -3 -4 -5 -5 -5 -6 -6 -6 -6 -6 -6 -6 -6 -6 -6 -6 -6 -6 -6 -6 -6 -6
2 2 2 2 2 1 1 1 1 1 0 0 -0 -1 -1 -1 -2 -2 -2 -3 -3 -3 -4 -5 -5 -6 -6 -6 -6 -7 -6 -7 -7 -7 -6 -6 -6 -6 -6 -6 -6 -6 -6 -6
2 2 1 1 1 1 1 0 0 0 -0 -0 -1 -1 -1 -2 -2 -2 -3 -3 -3 -4 -5 -5 -6 -6 -6 -7 -7 -7 -7 -7 -7 -7 -7 -6 -6 -6 -6 -6 -6 -6 -6 -6
1 1 1 0 0 0 -0 -0 -0 -1 -1 -1 -1 -2 -2 -2 -3 -3 -3 -4 -4 -5 -5 -6 -6 -7 -7 -7 -7 -7 -7 -7 -7 -7 -7 -7 -6 -6 -6 -6 -6 -7 -7 -7
0 -0 -0 -0 -1 -1 -1 -1 -1 -1 -2 -2 -2 -2 -3 -3 -3 -4 -4 -4 -5 -5 -6 -6 -7 -7 -7 -7 -8 -8 -7 -7 -7 -7 -7 -7 -7 -7 -7 -7 -7 -7 -7 -7
-1 -1 -1 -1 -1 -2 -2 -2 -2 -2 -2 -2 -3 -3 -3 -3 -4 -4 -4 -5 -5 -6 -6 -6 -7 -8 -8 -8 -8 -8 -8 -8 -7 -7 -7 -7 -7 -7 -7 -7 -7 -7 -8 -8
-1 -2 -2 -2 -2 -2 -3 -3 -3 -3 -3 -3 -3 -3 -3 -4 -4 -4 -5 -5 -5 -6 -6 -7 -7 -8 -8 -8 -8 -8 -8 -8 -8 -8 -8 -7 -7 -7 -7 -7 -8 -8 -8 -8
-2 -2 -2 -3 -3 -3 -3 -3 -4 -4 -4 -4 -4 -4 -4 -4 -4 -5 -5 -5 -6 -6 -7 -7 -8 -8 -8 -9 -9 -9 -9 -8 -8 -8 -8 -8 -8 -8 -8 -8 -8 -8 -8 -8
-3 -3 -3 -3 -3 -3 -4 -4 -4 -4 -4 -4 -4 -4 -4 -5 -5 -5 -6 -6 -7 -7 -7 -8 -8 -9 -9 -9 -9 -9 -9 -9 -8 -8 -8 -8 -8 -8 -8 -8 -8 -8 -8 -7
Wind_Speed
7 6 5 7 10 9 10 10 11 11 12 14 9 5 2 1 2 2 3 4 5 6 6 7 7 8 8 8 8 8 8 9 9 10 9 9 9 10 10 10 10 10 11 11
4 6 7 11 14 14 12 10 11 12 14 7 2 3 2 1 2 2 3 5 7 8 8 8 8 8 8 8 9 8 9 10 10 10 10 10 10 10 10 10 10 10 11 12
4 4 7 10 10 8 7 8 8 9 7 2 2 1 0 1 1 2 5 7 8 8 8 8 8 7 8 8 9 9 10 10 11 10 11 11 11 10 11 10 10 11 11 11
2 1 9 9 4 4 5 4 2 2 2 2 2 3 2 2 1 5 7 8 9 8 8 7 6 7 8 8 9 9 10 11 11 11 11 12 11 11 11 10 10 11 12 12
4 4 9 10 6 2 2 0 2 4 2 0 2 3 4 3 2 5 8 9 8 8 7 7 8 8 8 9 10 10 11 11 11 11 12 12 12 12 11 11 11 11 11 12
6 5 8 8 5 2 2 3 0 2 1 2 3 4 5 6 7 9 9 8 8 7 6 7 8 8 8 10 10 11 12 12 12 12 12 13 13 13 12 11 12 11 11 11
6 6 9 8 6 2 3 4 1 2 2 2 2 6 8 9 9 9 9 9 8 7 7 8 9 8 10 11 12 12 12 12 12 12 12 13 13 11 12 12 12 12 12 12
7 7 9 4 2 4 3 1 1 0 2 5 7 9 9 9 8 9 9 8 7 7 8 9 9 9 11 13 13 13 12 13 13 12 12 12 12 13 12 12 13 12 12 12
10 8 2 3 5 4 3 2 2 3 6 7 8 8 8 7 8 8 8 8 7 8 10 10 9 9 13 15 14 14 14 13 13 13 11 11 12 13 13 11 11 11 11 12
5 5 2 4 5 2 2 3 5 6 6 5 6 7 8 8 8 8 8 8 7 9 11 12 11 11 12 15 15 15 15 14 13 13 13 11 10 10 11 11 12 12 12 12
4 4 1 3 3 3 2 2 2 3 4 5 6 7 7 7 8 7 8 7 8 10 12 14 14 13 13 13 14 14 14 14 13 12 13 12 11 11 13 12 14 15 12 12
6 4 3 4 3 1 2 3 4 4 5 6 5 7 7 7 7 8 9 9 11 12 13 15 15 15 14 12 12 14 14 13 11 11 11 11 12 13 18 19 24 25 23 21
3 2 4 4 3 2 3 4 4 4 5 7 7 6 7 7 7 9 11 12 13 14 14 15 15 15 14 13 12 13 14 14 12 11 11 12 12 13 15 16 20 21 22 22
2 2 2 2 3 4 4 4 4 4 5 6 6 7 8 9 10 11 12 13 14 14 15 15 15 16 14 13 13 13 13 16 15 11 12 12 13 13 13 14 15 12 14 19
2 3 4 4 4 4 3 3 5 6 7 7 7 9 10 11 13 14 13 13 13 14 15 15 16 17 14 13 14 14 13 11 11 11 11 12 12 13 13 13 13 13 12 13
3 2 2 2 4 4 4 5 6 8 8 9 10 11 11 12 13 14 13 12 13 15 16 15 16 16 14 14 14 12 11 20 19 13 12 12 12 12 12 12 12 12 12 11
3 3 3 3 5 6 6 7 8 9 9 11 12 13 12 13 14 14 14 12 12 14 14 15 16 15 13 13 13 11 11 14 21 16 12 13 12 12 12 12 12 12 11 12
4 4 4 5 5 7 8 9 9 10 11 12 13 12 12 13 15 16 15 14 13 13 13 14 13 14 13 12 12 11 11 12 12 13 12 12 13 12 12 12 12 13 11 11
1 3 5 6 7 7 9 10 11 11 11 12 13 14 14 13 13 14 14 13 14 16 13 11 20 16 13 14 18 10 12 13 13 12 12 16 15 11 11 12 12 11 10 10
5 5 7 8 9 9 11 12 12 12 12 11 12 13 14 14 12 13 13 12 11 12 13 15 14 11 11 13 19 11 12 13 13 13 12 12 12 12 11 11 11 10 9 9
8 9 10 10 11 12 12 13 13 14 13 12 12 14 15 15 12 11 11 13 12 11 12 18 12 10 11 15 19 11 11 12 13 13 12 12 12 12 11 11 10 9 9 8
8 9 11 12 12 14 13 11 12 14 14 13 13 13 13 14 13 11 10 11 12 16 13 9 8 14 19 22 11 10 11 13 13 12 11 11 11 11 11 10 9 9 8 7
10 10 12 12 13 14 14 12 12 13 14 14 14 13 14 13 10 10 12 9 8 16 13 8 15 24 27 15 9 11 12 13 13 12 12 11 11 10 10 10 9 8 8 7
11 11 12 12 12 12 15 15 13 12 13 13 12 13 12 11 10 9 9 15 18 20 11 15 23 25 23 10 10 11 12 12 12 11 11 11 10 9 9 9 8 7 7 6
11 12 12 12 12 12 13 14 13 12 12 10 11 11 10 9 9 10 9 10 16 18 10 14 22 23 14 9 11 12 12 12 13 13 11 10 10 9 8 8 7 7 6 5
12 11 11 12 12 12 11 10 11 10 10 11 10 8 8 7 9 9 9 10 12 16 12 9 10 13 10 10 11 12 12 13 13 11 11 10 10 9 8 7 7 6 5 3
11 10 10 10 10 9 9 10 11 11 10 10 11 9 8 8 8 8 10 9 9 9 9 9 8 8 9 10 11 11 11 11 11 10 10 9 9 8 7 7 6 5 3 3
Wind_Direction
243 252 244 245 253 243 226 218 235 251 255 269 272 260 205 158 359 359 344 333 322 310 301 301 302 302 304 305 307 308 309 306 298 294 293 292 290 286 284 282 280 277 279 278
273 272 279 276 265 252 244 233 237 260 272 278 157 132 122 33 10 350 320 311 306 302 300 297 296 298 302 303 304 307 305 300 298 299 299 296 292 289 287 285 282 280 277 277
262 304 337 280 256 236 226 224 214 235 246 165 125 131 316 326 352 297 295 293 293 292 287 288 289 292 297 296 301 305 302 301 301 300 299 296 294 292 288 287 283 281 278 276
205 7 251 246 240 228 239 261 239 180 120 128 195 255 261 185 223 290 292 290 287 284 285 286 289 296 296 299 304 305 303 300 300 299 296 295 293 290 288 284 282 281 280 278
161 224 277 290 282 228 187 266 66 112 106 328 290 333 304 236 270 280 282 282 279 278 280 287 294 298 304 306 306 305 303 300 299 297 296 295 293 291 289 288 286 282 280 279
166 201 245 254 265 268 79 238 256 107 68 348 24 345 285 281 296 293 291 290 289 292 295 299 301 307 307 304 304 302 300 298 297 294 293 294 292 291 290 287 287 286 283 279
179 217 260 257 268 136 194 248 24 62 39 348 255 243 261 282 287 284 288 291 295 300 299 296 301 308 305 304 301 298 297 297 296 293 291 292 291 290 292 292 290 288 286 282
165 200 250 262 124 142 195 121 95 266 262 261 257 264 275 282 285 292 296 297 301 302 300 299 302 305 303 303 300 299 297 297 296 293 292 297 293 295 293 292 293 292 289 288
190 207 214 90 107 108 129 160 228 249 261 263 269 276 285 288 291 293 294 296 298 297 300 301 300 298 300 303 304 303 301 298 297 296 293 291 292 296 298 295 293 293 292 292
224 256 148 114 117 124 181 211 240 255 267 272 280 288 293 292 293 296 297 300 301 305 306 307 305 298 292 298 302 302 301 301 300 300 300 294 290 291 294 294 293 293 293 292
246 268 112 147 166 205 224 243 276 287 276 283 290 295 294 297 297 297 297 297 298 300 302 304 305 302 298 298 301 301 300 301 301 297 298 299 294 291 292 285 286 292 292 290
231 225 198 250 261 288 318 309 300 305 310 313 306 296 300 299 295 296 299 301 303 301 301 304 305 304 303 301 299 301 305 304 303 301 300 298 299 299 293 291 294 294 293 293
205 195 194 227 249 264 280 287 291 299 301 306 307 299 300 298 295 298 300 302 301 301 301 302 304 304 306 306 304 300 300 302 302 299 300 300 301 301 303 302 298 296 296 297
191 171 211 228 256 287 292 299 309 309 300 291 289 295 296 295 296 298 297 296 296 298 299 301 303 304 307 308 306 302 300 301 303 299 298 298 298 298 298 301 305 303 299 300
204 186 220 254 287 308 315 321 321 311 304 301 296 295 294 295 295 295 294 295 296 296 298 301 302 304 307 307 304 302 302 300 299 297 297 297 297 297 297 297 298 300 301 301
258 281 279 287 304 309 315 312 304 296 296 293 294 291 288 286 288 291 292 292 295 299 301 301 300 301 304 304 301 301 300 304 309 305 302 300 299 299 300 299 298 298 300 301
242 274 281 288 293 295 290 282 276 279 283 285 285 286 289 291 293 294 295 291 285 288 292 294 295 298 299 298 298 300 299 301 305 305 299 298 299 299 299 298 297 298 297 299
218 237 251 258 270 282 287 285 279 278 278 279 283 287 288 290 293 296 298 299 298 294 290 287 290 299 298 298 299 298 298 298 298 298 299 301 301 299 298 296 297 298 301 303
318 296 291 284 276 274 277 280 280 277 278 282 284 286 286 285 285 289 294 298 301 302 298 291 305 309 299 301 309 300 298 299 301 301 302 303 304 299 297 298 299 300 301 301
312 301 294 288 283 275 275 278 279 281 280 278 280 285 288 287 286 288 291 289 285 283 289 298 302 297 298 301 307 301 303 305 305 305 304 302 301 300 299 300 299 301 300 301
298 294 290 287 285 281 276 276 279 281 283 280 278 281 285 289 287 286 290 296 291 284 292 303 308 303 304 308 311 309 307 306 306 305 304 302 302 301 301 300 302 304 304 303
287 285 283 282 283 284 282 277 274 278 282 283 280 279 283 288 288 284 274 277 288 299 305 297 298 307 316 318 313 309 307 307 306 304 302 301 302 303 304 305 306 306 304 301
279 278 279 280 280 283 286 283 278 278 280 280 281 281 281 283 285 288 294 288 288 301 308 296 308 316 320 323 312 308 307 307 306 305 304 303 303 304 306 306 306 306 303 301
280 281 280 280 282 285 287 286 281 278 275 276 275 273 275 282 283 273 273 293 304 307 304 305 315 319 323 320 309 306 305 306 305 304 304 304 304 305 304 303 304 304 302 300
279 280 281 282 284 284 284 285 287 283 280 279 276 272 270 266 272 283 285 287 298 306 302 307 315 319 319 306 307 306 306 305 306 308 307 307 306 306 302 301 304 305 302 299
281 283 283 279 278 282 284 285 287 287 286 287 286 280 275 273 272 279 284 285 286 299 304 300 302 308 307 305 306 307 308 309 309 308 305 305 304 303 302 304 303 301 299 297
283 282 284 286 283 277 278 280 284 286 285 286 289 288 283 281 281 284 286 288 289 291 293 295 297 299 302 303 306 308 309 308 308 308 307 305 304 303 302 301 300 299 296 290
Height
1518 1517 1517 1517 1516 1515 1518 1518 1518 1509 1506 1498 1496 1496 1496 1497 1497 1496 1495 1494 1492 1490 1487 1483 1480 1476 1472 1468 1464 1460 1455 1450 1446 1441 1436 1431 1425 1420 1415 1410 1405 1400 1395 1390
1517 1514 1514 1513 1508 1507 1507 1507 1507 1503 1499 1493 1493 1494 1495 1496 1495 1494 1493 1491 1489 1486 1482 1479 1475 1470 1466 1463 1459 1454 1449 1445 1439 1434 1428 1423 1418 1412 1407 1401 1396 1391 1386 1381
1524 1518 1516 1513 1500 1499 1500 1498 1498 1500 1496 1494 1494 1494 1494 1494 1493 1492 1490 1488 1485 1481 1477 1473 1469 1465 1461 1457 1453 1449 1444 1438 1433 1427 1421 1415 1410 1404 1398 1392 1387 1382 1377 1372
1525 1521 1523 1502 1493 1493 1493 1492 1492 1492 1493 1493 1494 1494 1493 1492 1491 1489 1487 1484 1480 1476 1472 1468 1465 1461 1456 1452 1448 1442 1437 1431 1426 1419 1413 1407 1401 1395 1389 1383 1378 1372 1367 1363
1525 1524 1515 1499 1491 1488 1489 1492 1492 1492 1493 1493 1493 1492 1491 1490 1488 1486 1483 1479 1475 1471 1467 1463 1460 1455 1451 1446 1441 1436 1430 1424 1418 1412 1405 1398 1392 1386 1380 1374 1368 1363 1358 1354
1520 1518 1516 1497 1488 1486 1489 1493 1493 1491 1492 1492 1491 1494 1490 1487 1484 1481 1478 1474 1470 1466 1463 1459 1455 1450 1445 1440 1434 1428 1422 1416 1410 1404 1397 1390 1384 1378 1372 1366 1359 1354 1349 1345
1515 1514 1504 1490 1486 1487 1496 1496 1492 1491 1491 1491 1490 1490 1486 1483 1479 1476 1473 1469 1465 1461 1458 1454 1450 1445 1439 1433 1427 1421 1414 1408 1402 1396 1390 1382 1375 1369 1363 1357 1351 1345 1340 1336
1513 1512 1503 1485 1485 1489 1491 1490 1490 1490 1489 1488 1486 1483 1480 1477 1474 1471 1467 1464 1460 1457 1453 1449 1445 1439 1432 1426 1420 1413 1406 1399 1393 1387 1381 1374 1367 1360 1355 1349 1342 1336 1331 1326
1494 1491 1486 1484 1485 1487 1488 1489 1488 1487 1486 1484 1481 1478 1475 1472 1469 1466 1463 1459 1456 1451 1447 1442 1438 1433 1426 1418 1412 1404 1397 1390 1384 1377 1371 1366 1359 1352 1346 1340 1335 1329 1324 1318
1487 1483 1483 1484 1485 1486 1486 1486 1485 1483 1481 1479 1476 1473 1470 1468 1464 1461 1458 1454 1450 1446 1440 1434 1430 1425 1419 1412 1404 1396 1389 1381 1375 1368 1362 1356 1351 1345 1339 1333 1327 1322 1317 1312
1483 1482 1482 1483 1483 1483 1482 1481 1480 1478 1477 1474 1472 1469 1466 1463 1460 1457 1453 1449 1445 1440 1433 1427 1421 1415 1410 1404 1396 1388 1380 1373 1367 1360 1354 1347 1342 1337 1331 1326 1322 1316 1311 1306
1480 1478 1480 1480 1479 1479 1478 1477 1476 1474 1472 1470 1468 1465 1462 1459 1456 1452 1448 1443 1438 1433 1427 1420 1414 1407 1402 1396 1389 1380 1372 1365 1359 1352 1346 1340 1333 1327 1322 1319 1313 1309 1305 1300
1475 1475 1476 1476 1477 1476 1475 1474 1472 1471 1469 1467 1465 1462 1459 1455 1451 1447 1442 1438 1432 1426 1420 1413 1406 1400 1394 1387 1380 1373 1366 1359 1352 1345 1339 1333 1327 1320 1313 1308 1305 1301 1297 1292
1473 1474 1474 1474 1474 1473 1471 1470 1469 1467 1466 1463 1461 1458 1454 1450 1445 1441 1436 1431 1425 1419 1412 1406 1399 1392 1386 1379 1372 1366 1359 1352 1346 1339 1333 1327 1321 1315 1309 1303 1297 1291 1288 1285
1471 1471 1471 1471 1470 1469 1468 1467 1465 1463 1461 1458 1456 1452 1449 1444 1439 1434 1429 1424 1418 1411 1405 1399 1391 1384 1378 1372 1365 1358 1352 1345 1338 1332 1326 1320 1315 1309 1304 1298 1292 1286 1281 1276
1468 1468 1468 1467 1467 1466 1465 1463 1461 1459 1456 1453 1450 1447 1443 1438 1433 1427 1422 1417 1411 1403 1397 1391 1384 1377 1371 1364 1358 1351 1345 1339 1333 1326 1319 1314 1308 1303 1298 1292 1287 1281 1276 1271
1465 1465 1465 1464 1464 1463 1462 1460 1458 1455 1452 1448 1444 1440 1435 1430 1425 1419 1414 1409 1403 1397 1391 1384 1376 1370 1363 1357 1351 1344 1337 1331 1325 1319 1313 1308 1302 1297 1292 1286 1281 1276 1271 1267
1463 1463 1463 1462 1461 1459 1457 1455 1453 1450 1446 1442 1438 1433 1428 1423 1417 1411 1405 1399 1393 1387 1383 1376 1369 1362 1356 1351 1344 1337 1331 1325 1319 1313 1307 1302 1296 1291 1286 1281 1275 1271 1266 1262
1461 1461 1460 1459 1457 1455 1453 1450 1447 1443 1439 1435 1430 1425 1420 1415 1410 1404 1398 1392 1385 1378 1372 1368 1362 1356 1349 1343 1337 1331 1325 1319 1313 1307 1302 1296 1290 1285 1280 1275 1270 1266 1261 1257
1458 1458 1456 1454 1452 1450 1447 1443 1439 1435 1431 1427 1422 1417 1411 1406 1401 1396 1390 1384 1379 1373 1366 1359 1354 1348 1342 1336 1330 1324 1319 1313 1307 1301 1295 1290 1284 1279 1275 1270 1266 1261 1257 1253
1455 1453 1451 1448 1445 1442 1439 1436 1431 1426 1422 1418 1414 1408 1403 1397 1393 1388 1381 1375 1370 1365 1359 1353 1347 1341 1335 1329 1324 1318 1313 1307 1301 1295 1290 1284 1279 1274 1270 1265 1261 1257 1252 1248
1449 1447 1444 1441 1437 1433 1430 1427 1423 1418 1413 1408 1404 1399 1394 1388 1383 1379 1374 1369 1362 1357 1351 1346 1340 1335 1329 1324 1318 1312 1306 1301 1295 1290 1284 1279 1274 1270 1265 1261 1256 1252 1248 1244
1443 1440 1436 1433 1429 1424 1420 1416 1412 1408 1403 1399 1395 1390 1385 1380 1376 1371 1364 1360 1356 1350 1345 1339 1334 1328 1323 1317 1311 1305 1300 1295 1290 1285 1280 1275 1270 1265 1261 1256 1252 1248 1244 1241
1434 1431 1427 1423 1419 1414 1409 1405 1401 1397 1393 1389 1385 1381 1377 1372 1367 1363 1359 1353 1348 1343 1338 1332 1327 1322 1316 1310 1305 1299 1294 1289 1284 1279 1275 1270 1265 1261 1256 1252 1248 1244 1241 1238
1425 1421 1417 1413 1409 1404 1399 1395 1390 1386 1383 1379 1375 1372 1369 1364 1360 1355 1350 1346 1341 1336 1330 1325 1320 1315 1309 1304 1299 1293 1289 1284 1279 1275 1270 1265 1260 1256 1252 1248 1245 1242 1239 1236
1415 1411 1407 1404 1400 1395 1391 1386 1381 1377 1374 1369 1366 1363 1360 1356 1352 1347 1343 1338 1333 1329 1324 1318 1313 1308 1303 1298 1293 1288 1283 1278 1274 1269 1264 1260 1256 1252 1248 1245 1242 1239 1237 1235
1405 1402 1398 1393 1389 1386 1382 1378 1374 1369 1366 1362 1358 1354 1352 1348 1344 1340 1335 1330 1326 1321 1316 1311 1307 1302 1297 1292 1287 1282 1277 1273 1268 1264 1260 1256 1252 1248 1245 1242 1239 1237 1235 1233